Regional Weather Roundup
Issued by NWS Kansas City/Pleasant Hill, MO

Home | Current Version | Previous Version | Text Only | Print | Product List | Glossary Off
Versions: 1 2 3 4 5 6 7 8 9 10 11 12 13 14 15 16 17 18 19 20 21 22 23 24 25 26 27 28 29 30 31 32 33 34 35 36 37 38 39 40 41 42 43 44 45 46 47 48 49 50

000
ASUS43 KEAX 270510
RWREAX

WEATHER ROUNDUP FOR EASTERN KANSAS AND NORTHWEST MISSOURI
NATIONAL WEATHER SERVICE KANSAS CITY/PLEASANT HILL MO
1200 AM CDT MON MAR 27 2017

KSZ040-057-103>105-MOZ028-029-037-043-270600-
...KANSAS CITY METROPOLITAN AREA...

CITY           SKY/WX    TMP DP  RH WIND       PRES   REMARKS
K.C. INTL      DRIZZLE   47  46  97 NE6       29.93R
K.C. DOWNTOWN  CLOUDY    50  46  86 NE9       29.90F
LEES SUMMIT    CLOUDY    49  46  90 NE10      29.90F
OLATHE - IXD   HVY RAIN  48  46  93 N12       29.89S FOG
OLATHE - OJC   CLOUDY    48  46  93 NE14      29.87F
LAWRENCE       LGT RAIN  48  47  96 N7        29.91F FOG

$$

MOZ001>008-011>017-020>025-030>033-038>040-044>046-053-054-270600-
...NORTHERN AND CENTRAL MISSOURI...

CITY           SKY/WX    TMP DP  RH WIND       PRES   REMARKS
ST. JOSEPH     CLOUDY    47  44  90 N8        29.92S
MOSBY          CLOUDY    48  43  81 CALM      29.94R
WARRENSBURG    RAIN      50  45  81 N8        29.92R
WHITEMAN AFB   LGT RAIN  50  50 100 NE3       29.92R
CLINTON        CLOUDY    52  50  93 NE8       29.91R
SEDALIA        CLOUDY    52  49  89 NE6       29.92F
WARSAW         NOT AVBL
CHILLICOTHE      N/A     48  44  86 NE5       29.93F
KIRKSVILLE     CLOUDY    48  44  86 N3        29.94S

$$

MOZ041-047>049-056>058-063>065-088>090-097-270600-
...EASTERN AND SOUTHERN MISSOURI...

CITY           SKY/WX    TMP DP  RH WIND       PRES   REMARKS
ST. LOUIS INTL CLOUDY    52  47  83 NE3       29.94R
SPIRIT OF STL  PTCLDY    49  49 100 CALM      29.93S
COLUMBIA       PTCLDY    50  49  96 NE9       29.92F
JEFFERSON CITY MOCLDY    53  48  83 SE5       29.93F
ROLLA          MOCLDY    53  49  86 CALM      29.93R
OSAGE BEACH    LGT RAIN N/A N/A N/A E5        29.93S
SPRINGFIELD    RAIN      57  54  89 S12       29.91F
BRANSON        TSTM      55  55 100 NW10      29.93R
JOPLIN         CLOUDY    58  55  90 SE14G25   29.79R
WEST PLAINS    MOCLDY    58  49  72 SE5       29.93R

$$

IAZ060-094-KSZ022-034>040-054-083-096-NEZ052-066-093-270600-
...KANSAS...SOUTHEAST NEBRASKA AND IOWA...

CITY           SKY/WX    TMP DP  RH WIND       PRES   REMARKS
TOPEKA         RAIN      48  48 100 NE9       29.90F FOG
MANHATTAN      CLOUDY    48  46  93 E12       29.90F
EMPORIA        LGT RAIN  47  47 100 NE15G25   29.83F FOG
CHANUTE        TSTM      51  49  92 N12       29.90R FOG
WICHITA        CLOUDY    50  49  96 NE12      29.82S
OMAHA          CLOUDY    47  42  83 N3        29.95R
LINCOLN        CLOUDY    47  43  86 N7        29.95S
FALLS CITY     CLOUDY    46  44  93 N8        29.90F
LAMONI         LGT RAIN  46  43  89 CALM      29.91F
DES MOINES     CLOUDY    46  44  93 N3        29.93F

$$




USA.gov is the U.S. government's official web portal to all federal, state and local government web resources and services.